Raleigh-Durham Airport, NC

2:12 AM EDT on April 30, 2017 (GMT -0400)
Raleigh-Durham International

Weather History for KRDU - October, 2011

Change the Weather History Date:

Tuesday, October 25, 2011

  Actual Average Record
Temperature  
Mean Temperature 58 °F 58 °F  
Max Temperature 71 °F 70 °F 84 °F (1940)
Min Temperature 45 °F 47 °F 27 °F (1962)
Degree Days  
Heating Degree Days 7 7  
Month to date heating degree days 120 118  
Since 1 July heating degree days 135 139  
Cooling Degree Days 0 1  
Month to date cooling degree days 26 47  
Year to date cooling degree days 2110 1715  
Growing Degree Days 8 (Base 50)    
Moisture  
Dew Point 44 °F    
Average Humidity 62    
Maximum Humidity 89    
Minimum Humidity 35    
Precipitation  
Precipitation 0.00 in 0.11 in 2.04 in (1981)
Month to date precipitation 2.29 2.66  
Year to date precipitation 37.11 36.56  
Sea Level Pressure  
Sea Level Pressure 30.19 in    
Wind  
Wind Speed 1 mph (NNW)    
Max Wind Speed 10 mph    
Max Gust Speed 13 mph    
Visibility 10 miles    
Events Fog    
T = Trace of Precipitation, MM = Missing Value Source: NWS Daily Summary

Daily Weather History Graph

Daily Weather History Graph

Search for Another Location

Airport or City:

Trip Planner

Search our weather history database for the weather conditions in past years. The results will help you decide how hot, cold, wet, or windy it might be!

Date:

Astronomy

Oct. 25, 2011 Rise Set
Actual Time 7:30 AM EDT 6:27 PM EDT
Civil Twilight 7:04 AM EDT 6:53 PM EDT
Nautical Twilight 6:34 AM EDT 7:23 PM EDT
Astronomical Twilight 6:04 AM EDT 7:53 PM EDT
Moon 6:01 AM EDT (10/25) 5:27 PM EDT (10/25)
Length of Visible Light 11h 49m
Length of Day
10h 56m
Waning Crescent, 2% of the Moon is Illuminated
Oct 25
Waning Crescent
Oct 26
New
Nov 2
First Quarter
Nov 10
Full
Nov 18
Last Quarter

Hourly Weather History & Observations

Time (EDT) Temp. Dew Point Humidity Pressure Visibility Wind Dir Wind Speed Gust Speed Precip Events Conditions
12:51 AM 52.0 °F 48.0 °F 86% 30.11 in 10.0 mi Calm Calm - N/A   Clear
1:51 AM 51.1 °F 46.9 °F 86% 30.12 in 10.0 mi Calm Calm - N/A   Clear
2:51 AM 50.0 °F 46.0 °F 86% 30.14 in 10.0 mi Calm Calm - N/A   Clear
3:51 AM 50.0 °F 45.0 °F 83% 30.14 in 10.0 mi Calm Calm - N/A   Clear
4:51 AM 48.9 °F 44.1 °F 83% 30.15 in 10.0 mi Calm Calm - N/A   Clear
5:51 AM 48.9 °F 44.1 °F 83% 30.18 in 10.0 mi Calm Calm - N/A   Clear
6:51 AM 48.0 °F 43.0 °F 83% 30.20 in 10.0 mi Calm Calm - N/A   Clear
7:51 AM 46.0 °F 43.0 °F 89% 30.23 in 10.0 mi Calm Calm - N/A Fog Patches of Fog
8:51 AM 53.1 °F 46.9 °F 80% 30.26 in 10.0 mi Calm Calm - N/A   Clear
9:51 AM 59.0 °F 46.9 °F 64% 30.27 in 10.0 mi North 4.6 mph - N/A   Clear
10:51 AM 62.1 °F 44.1 °F 52% 30.27 in 10.0 mi NE 6.9 mph - N/A   Clear
11:51 AM 64.9 °F 41.0 °F 42% 30.27 in 10.0 mi North 6.9 mph - N/A   Clear
12:51 PM 66.9 °F 39.0 °F 36% 30.25 in 10.0 mi Variable 4.6 mph - N/A   Clear
1:51 PM 68.0 °F 39.0 °F 35% 30.22 in 10.0 mi Calm Calm - N/A   Partly Cloudy
2:51 PM 69.1 °F 41.0 °F 36% 30.19 in 10.0 mi Calm Calm - N/A   Partly Cloudy
3:51 PM 71.1 °F 42.1 °F 35% 30.18 in 10.0 mi SW 3.5 mph - N/A   Partly Cloudy
4:51 PM 70.0 °F 41.0 °F 35% 30.17 in 10.0 mi West 3.5 mph - N/A   Partly Cloudy
5:51 PM 66.0 °F 45.0 °F 47% 30.17 in 10.0 mi Calm Calm - N/A   Partly Cloudy
6:51 PM 61.0 °F 46.9 °F 60% 30.18 in 10.0 mi Calm Calm - N/A   Partly Cloudy
7:51 PM 54.0 °F 46.0 °F 75% 30.17 in 10.0 mi Calm Calm - N/A   Clear
8:51 PM 53.1 °F 45.0 °F 74% 30.18 in 10.0 mi Calm Calm - N/A   Clear
9:51 PM 52.0 °F 44.1 °F 74% 30.17 in 10.0 mi Calm Calm - N/A   Clear
10:51 PM 52.0 °F 44.1 °F 74% 30.17 in 10.0 mi Calm Calm - N/A   Clear
11:51 PM 50.0 °F 44.1 °F 80% 30.16 in 10.0 mi Calm Calm - N/A   Clear